This is the latest recevied weather packets stored in our database for station/object K6MBY. If no packets are shown the sender has not sent any weather packets the latest 10 day(s).
| Time | Temp. | Humidity | Pressure | Rain* | Wind** | Luminosity | Snow |
|---|---|---|---|---|---|---|---|
| 1777836436 | 21.11° C | 48% | 1017.5 hPa | 0 mm | - | 844 W/m² | - |
| 1777836131 | 20.56° C | 48% | 1017.5 hPa | 0 mm | - | 840 W/m² | - |
| 1777835828 | 20.56° C | 51% | 1017.5 hPa | 0 mm | - | 837 W/m² | - |
| 1777835525 | 20.56° C | 51% | 1017.4 hPa | 0 mm | - | 833 W/m² | - |
| 1777835222 | 21.11° C | 51% | 1017.6 hPa | 0 mm | - | 829 W/m² | - |
| 1777834919 | 21.11° C | 48% | 1017.5 hPa | 0 mm | - | 823 W/m² | - |
| 1777834616 | 21.11° C | 48% | 1017.7 hPa | 0 mm | - | 818 W/m² | - |
| 1777834311 | 20.56° C | 48% | 1017.5 hPa | 0 mm | - | 812 W/m² | - |
| 1777834005 | 21.11° C | 51% | 1017.7 hPa | 0 mm | - | 807 W/m² | - |
| 1777833702 | 20° C | 56% | 1017.7 hPa | 0 mm | - | 802 W/m² | - |
| 1777833393 | 20° C | 56% | 1017.9 hPa | 0 mm | - | 795 W/m² | - |
| 1777833091 | 20° C | 58% | 1017.7 hPa | 0 mm | - | 788 W/m² | - |
| 1777832789 | 19.44° C | 56% | 1018.1 hPa | 0 mm | - | 781 W/m² | - |
| 1777832487 | 19.44° C | 55% | 1017.9 hPa | 0 mm | - | 774 W/m² | - |
| 1777832183 | 19.44° C | 55% | 1018 hPa | 0 mm | - | 766 W/m² | - |
| 1777831880 | 19.44° C | 57% | 1018.2 hPa | 0 mm | - | 757 W/m² | - |
| 1777831577 | 19.44° C | 57% | 1018.2 hPa | 0 mm | - | 748 W/m² | - |
| 1777831275 | 19.44° C | 55% | 1018.3 hPa | 0 mm | - | 740 W/m² | - |
| 1777830971 | 19.44° C | 55% | 1018.2 hPa | 0 mm | - | 730 W/m² | - |
| 1777830668 | 19.44° C | 55% | 1018.3 hPa | 0 mm | - | 722 W/m² | - |
| 1777830365 | 19.44° C | 56% | 1018.5 hPa | 0 mm | - | 711 W/m² | - |
| 1777830062 | 20° C | 56% | 1018.5 hPa | 0 mm | - | 699 W/m² | - |
| 1777829757 | 19.44° C | 55% | 1018.6 hPa | 0 mm | - | 691 W/m² | - |
| 1777829453 | 19.44° C | 56% | 1018.3 hPa | 0 mm | - | 682 W/m² | - |
| 1777829150 | 19.44° C | 57% | 1018.5 hPa | 0 mm | - | 670 W/m² | - |
* Rain latest hour (hover to see other rain measurements)
** Current wind speed in m/s (hover to see current wind gust speed)